Home   Weather   Arden-Arcade   Past weeks

Flag for USA Past Weather in Arden-Arcade, California, USA — Yesterday and Last 2 Weeks

Now
54 °F

Clear.


Feels Like: 54 °F
Forecast: 49 / 71 °F
Wind: No wind

Location: Mather Field

Current Time: Apr 27, 2017 at 11:36:36 pm

Latest Report: Apr 27, 2017 at 10:45 pm


Visibility: 10 mi

Pressure: 29.97 "Hg

Humidity: 82%

Dew Point: 48 °F

Location of Arden-ArcadeLocation

Past Weather in Arden-Arcade — Graph

°F

Arden-Arcade Temperature Yesterday

Maximum temperature yesterday: 64 °F (at 2:55 pm)
Minimum temperature yesterday: 54 °F (at 2:45 am)
Average temperature yesterday: 60 °F

High & Low Weather Summary for the Past Weeks

 TemperatureHumidityPressure
High77 °F (Apr 21, 4:45 pm)100% (Apr 13, 2:55 am)30.31 "Hg (Apr 13, 2:55 am)
Low36 °F (Apr 15, 5:50 am)19% (Apr 27, 5:45 pm)29.89 "Hg (Apr 12, 11:30 pm)
Average58 °F74%30.06 "Hg
* Reported Apr 12 9:45 pm — Apr 27 9:45 pm, Arden-Arcade, Weather by CustomWeather, © 2017

Note: Actual official high and low records may vary slightly from our data, if they occured in-between our weather recording intervals... More about our weather records

Advertising

Arden-Arcade Weather History for the Previous 24 Hours

Scroll right to see more
 ConditionsComfort  
Time TempWeatherWind HumidityBarometerVisibility
9:45 pm
Thu, Apr 27
57 °FClear.6 mph77%29.95 "Hg10 mi
8:45 pm61 °FClear.6 mph68%29.95 "Hg10 mi
7:45 pm68 °FScattered clouds.7 mph38%29.94 "Hg10 mi
6:45 pm73 °FScattered clouds.8 mph22%29.93 "Hg10 mi
5:45 pm75 °FScattered clouds.12 mph19%29.93 "Hg10 mi
4:45 pm73 °FScattered clouds.8 mph100%29.94 "Hg10 mi
3:45 pm73 °FScattered clouds.10 mph22%29.96 "Hg10 mi
2:45 pm73 °FScattered clouds.13 mph23%29.97 "Hg10 mi
1:50 pm73 °FPassing clouds.14 mph29%29.98 "Hg10 mi
12:50 pm70 °FScattered clouds.12 mph43%30.01 "Hg10 mi
11:45 am66 °FScattered clouds.10 mph56%30.03 "Hg10 mi
10:45 am64 °FPartly sunny.12 mph73%30.02 "Hg10 mi
9:45 am59 °FOvercast.7 mph88%30.04 "Hg10 mi
8:45 am59 °FPartly sunny.6 mph88%30.02 "Hg10 mi
6:55 am54 °FOvercast.3 mph100%30.01 "Hg10 mi
5:55 am54 °FOvercast.6 mph100%30.00 "Hg10 mi
4:55 am54 °FPartly cloudy.No wind100%30.00 "Hg10 mi
3:50 am52 °FPartly cloudy.5 mph100%30.00 "Hg10 mi
2:53 am54 °FPassing clouds.5 mph100%29.99 "Hg10 mi
11:30 pm
Wed, Apr 26
57 °FOvercast.6 mph88%30.00 "Hg10 mi
Weather by CustomWeather, © 2017

See weather overviewHow to use our weather pages